Mandan, ND

8:12 PM CDT on April 24, 2018 (GMT -0500)
Mandan

Weather History for KY19 - November, 2012

Change the Weather History Date:

Thursday, November 8, 2012

  Actual Average (KBIS) Record (KBIS)
Temperature  
Mean Temperature 37 °F -  
Max Temperature 46 °F 41 °F 74 °F (1999)
Min Temperature 28 °F 21 °F -2 °F (2003)
Degree Days  
Heating Degree Days 28    
Moisture  
Dew Point 33 °F    
Average Humidity 86    
Maximum Humidity 100    
Minimum Humidity 66    
Precipitation  
Precipitation 0.00 in - - ()
Sea Level Pressure  
Sea Level Pressure 30.01 in    
Wind  
Wind Speed 14 mph (NNE)    
Max Wind Speed 26 mph    
Max Gust Speed 36 mph    
Visibility 10 miles    
Events Rain    
Averages and records for this station are not official NWS values.
T = Trace of Precipitation, MM = Missing Value Source: NWS Daily Summary

Daily Weather History Graph

Daily Weather History Graph

Search for Another Location

Airport or City:

Astronomy

Nov. 08, 2012 Rise Set
Actual Time 7:36 AM CST 5:17 PM CST
Civil Twilight 7:04 AM CST 5:49 PM CST
Nautical Twilight 6:28 AM CST 6:25 PM CST
Astronomical Twilight 5:52 AM CST 7:01 PM CST
Moon 1:12 AM CST (11/8) 2:18 PM CST (11/8)
Length of Visible Light 10h 45m
Length of Day
9h 40m
Waning Crescent, 32% of the Moon is Illuminated
Nov 8
Waning Crescent
Nov 13
New
Nov 20
First Quarter
Nov 28
Full
Dec 6
Last Quarter

Hourly Weather History & Observations

Time (CST) Temp. Windchill Dew Point Humidity Pressure Visibility Wind Dir Wind Speed Gust Speed Precip Events Conditions
12:15 AM 42.8 °F 39.3 °F 32.0 °F 66% 29.75 in 10.0 mi NW 5.8 mph - N/A   Clear
12:35 AM 41.0 °F 36.4 °F 32.0 °F 70% 29.76 in 10.0 mi NW 6.9 mph - N/A   Clear
1:15 AM 46.4 °F 41.5 °F 35.6 °F 66% 29.78 in 10.0 mi NNW 10.4 mph - N/A   Clear
1:55 AM 42.8 °F 38.6 °F 35.6 °F 76% 29.80 in 10.0 mi NW 6.9 mph - N/A   Clear
2:15 AM 42.8 °F 37.0 °F 35.6 °F 76% 29.81 in 10.0 mi NW 10.4 mph 16.1 mph N/A   Clear
2:35 AM 44.6 °F 39.2 °F 37.4 °F 76% 29.81 in 10.0 mi NW 10.4 mph - N/A   Clear
2:55 AM 44.6 °F 39.2 °F 37.4 °F 76% 29.82 in 10.0 mi NW 10.4 mph - N/A   Clear
3:15 AM 44.6 °F 40.2 °F 37.4 °F 76% 29.83 in 10.0 mi NW 8.1 mph - N/A   Clear
3:35 AM 41.0 °F 35.2 °F 37.4 °F 87% 29.85 in 10.0 mi WNW 9.2 mph - N/A   Scattered Clouds
3:55 AM 44.6 °F 40.2 °F 39.2 °F 81% 29.85 in 10.0 mi WNW 8.1 mph - N/A   Mostly Cloudy
4:15 AM 44.6 °F 38.4 °F 39.2 °F 81% 29.86 in 10.0 mi NW 12.7 mph 17.3 mph N/A   Overcast
4:35 AM 44.6 °F 36.1 °F 41.0 °F 87% 29.86 in 10.0 mi NNW 21.9 mph 25.3 mph N/A   Overcast
4:55 AM 44.6 °F 37.8 °F 41.0 °F 87% 29.87 in 10.0 mi NNW 15.0 mph 24.2 mph N/A   Overcast
5:15 AM 41.0 °F 31.1 °F 37.4 °F 87% 29.88 in 10.0 mi NNW 23.0 mph 29.9 mph N/A   Overcast
5:35 AM 41.0 °F 30.9 °F 37.4 °F 87% 29.90 in 10.0 mi NNW 24.2 mph 32.2 mph N/A   Overcast
5:55 AM 41.0 °F 30.9 °F 37.4 °F 87% 29.91 in 10.0 mi NNW 24.2 mph 34.5 mph N/A   Overcast
6:15 AM 39.2 °F 28.3 °F 37.4 °F 93% 29.92 in 10.0 mi NNW 25.3 mph 35.7 mph N/A   Overcast
6:55 AM 37.4 °F 25.9 °F 35.6 °F 93% 29.94 in 10.0 mi NNW 25.3 mph 32.2 mph N/A   Overcast
7:15 AM 37.4 °F 26.6 °F 33.8 °F 87% 29.96 in 10.0 mi NNW 21.9 mph 27.6 mph N/A   Overcast
7:35 AM 37.4 °F 26.1 °F 33.8 °F 87% 29.97 in 10.0 mi NNW 24.2 mph 29.9 mph N/A   Overcast
7:55 AM 37.4 °F 27.2 °F 33.8 °F 87% 29.99 in 10.0 mi NNW 19.6 mph 27.6 mph N/A   Overcast
8:15 AM 37.4 °F 25.6 °F 33.8 °F 87% 30.00 in 10.0 mi NNW 26.5 mph 32.2 mph N/A   Overcast
8:35 AM 37.4 °F 27.5 °F 33.8 °F 87% 30.02 in 10.0 mi NNW 18.4 mph 33.4 mph N/A   Overcast
8:55 AM 35.6 °F 25.2 °F 32.0 °F 87% 30.03 in 10.0 mi NNW 18.4 mph 25.3 mph N/A   Overcast
9:15 AM 35.6 °F 25.9 °F 32.0 °F 87% 30.04 in 10.0 mi North 16.1 mph 24.2 mph N/A   Overcast
9:35 AM 35.6 °F 25.9 °F 32.0 °F 87% 30.04 in 10.0 mi North 16.1 mph 24.2 mph N/A   Overcast
9:55 AM 35.6 °F 24.5 °F 32.0 °F 87% 30.04 in 10.0 mi NNW 20.7 mph 26.5 mph N/A   Overcast
10:15 AM 35.6 °F 24.5 °F 32.0 °F 87% 30.05 in 10.0 mi NNW 20.7 mph 26.5 mph N/A   Overcast
10:35 AM 35.6 °F 24.8 °F 32.0 °F 87% 30.07 in 10.0 mi NNW 19.6 mph 25.3 mph N/A   Overcast
10:55 AM 35.6 °F 25.9 °F 32.0 °F 87% 30.07 in 10.0 mi North 16.1 mph - N/A   Overcast
11:15 AM 35.6 °F 26.2 °F 32.0 °F 87% 30.07 in 10.0 mi North 15.0 mph - N/A   Overcast
11:35 AM 35.6 °F 25.5 °F 32.0 °F 87% 30.07 in 10.0 mi North 17.3 mph 21.9 mph N/A   Overcast
11:55 AM 37.4 °F 27.8 °F 32.0 °F 81% 30.07 in 10.0 mi North 17.3 mph - N/A   Overcast
12:15 PM 35.6 °F 25.9 °F 32.0 °F 87% 30.07 in 10.0 mi North 16.1 mph - N/A   Overcast
12:35 PM 35.6 °F 27.5 °F 32.0 °F 87% 30.07 in 10.0 mi NNE 11.5 mph - N/A   Overcast
12:55 PM 37.4 °F 30.3 °F 32.0 °F 81% 30.08 in 10.0 mi NNE 10.4 mph - N/A   Overcast
1:15 PM 37.4 °F 30.8 °F 32.0 °F 81% 30.07 in 10.0 mi NNE 9.2 mph - N/A   Overcast
1:35 PM 37.4 °F 30.3 °F 32.0 °F 81% 30.07 in 10.0 mi NNE 10.4 mph - N/A   Overcast
1:55 PM 37.4 °F 29.8 °F 32.0 °F 81% 30.07 in 10.0 mi NNE 11.5 mph 17.3 mph N/A   Overcast
2:15 PM 37.4 °F 29.8 °F 32.0 °F 81% 30.07 in 10.0 mi NNE 11.5 mph - N/A   Overcast
2:35 PM 37.4 °F 28.2 °F 32.0 °F 81% 30.07 in 10.0 mi NNE 16.1 mph - N/A   Overcast
2:55 PM 37.4 °F 29.3 °F 32.0 °F 81% 30.07 in 10.0 mi NNE 12.7 mph - N/A   Overcast
3:15 PM 37.4 °F 30.3 °F 32.0 °F 81% 30.08 in 10.0 mi NNE 10.4 mph - N/A   Overcast
3:35 PM 37.4 °F 29.3 °F 32.0 °F 81% 30.08 in 10.0 mi NNE 12.7 mph 17.3 mph N/A   Overcast
3:55 PM 37.4 °F 28.5 °F 32.0 °F 81% 30.07 in 10.0 mi NE 15.0 mph - N/A   Overcast
4:15 PM 35.6 °F 27.1 °F 32.0 °F 87% 30.07 in 10.0 mi NE 12.7 mph 20.7 mph N/A   Overcast
4:35 PM 35.6 °F 25.9 °F 32.0 °F 87% 30.07 in 10.0 mi NE 16.1 mph - N/A   Overcast
4:55 PM 35.6 °F 28.0 °F 32.0 °F 87% 30.07 in 10.0 mi NE 10.4 mph - N/A   Overcast
5:15 PM 35.6 °F 26.6 °F 32.0 °F 87% 30.07 in 10.0 mi NE 13.8 mph - N/A   Overcast
5:35 PM 35.6 °F 27.1 °F 32.0 °F 87% 30.08 in 10.0 mi NE 12.7 mph 17.3 mph N/A   Overcast
5:55 PM 35.6 °F 26.2 °F 32.0 °F 87% 30.08 in 10.0 mi NE 15.0 mph 19.6 mph N/A   Overcast
6:15 PM 35.6 °F 26.6 °F 32.0 °F 87% 30.08 in 10.0 mi ENE 13.8 mph 18.4 mph N/A   Overcast
6:35 PM 33.8 °F 23.9 °F 32.0 °F 93% 30.08 in 10.0 mi ENE 15.0 mph 23.0 mph N/A   Overcast
6:55 PM 33.8 °F 23.9 °F 30.2 °F 87% 30.09 in 10.0 mi ENE 15.0 mph 21.9 mph N/A   Overcast
7:15 PM 32.0 °F 21.2 °F 30.2 °F 93% 30.10 in 10.0 mi ENE 16.1 mph - N/A   Overcast
7:35 PM 32.0 °F 22.1 °F 28.4 °F 87% 30.10 in 10.0 mi ENE 13.8 mph - N/A   Overcast
7:55 PM 32.0 °F 21.6 °F 30.2 °F 93% 30.10 in 10.0 mi ENE 15.0 mph - N/A   Overcast
8:15 PM 32.0 °F 21.2 °F 30.2 °F 93% 30.09 in 10.0 mi ENE 16.1 mph - N/A   Overcast
8:35 PM 32.0 °F 22.1 °F 30.2 °F 93% 30.09 in 10.0 mi ENE 13.8 mph 18.4 mph N/A   Overcast
8:55 PM 32.0 °F 22.5 °F 32.0 °F 100% 30.09 in 10.0 mi ENE 12.7 mph 18.4 mph N/A   Overcast
9:15 PM 32.0 °F 20.8 °F 30.2 °F 93% 30.10 in 10.0 mi ENE 17.3 mph 20.7 mph N/A   Overcast
9:35 PM 32.0 °F 22.1 °F 28.4 °F 87% 30.11 in 10.0 mi ENE 13.8 mph 20.7 mph N/A   Overcast
9:55 PM 32.0 °F 23.6 °F 28.4 °F 87% 30.12 in 10.0 mi East 10.4 mph - N/A   Overcast
10:15 PM 32.0 °F 23.0 °F 32.0 °F 100% 30.12 in 9.0 mi ENE 11.5 mph 17.3 mph N/A Rain Light Rain
10:35 PM 32.0 °F 22.1 °F 32.0 °F 100% 30.12 in 10.0 mi ENE 13.8 mph 19.6 mph N/A   Overcast
10:55 PM 30.2 °F 19.3 °F 30.2 °F 100% 30.12 in 10.0 mi ENE 15.0 mph 19.6 mph N/A   Overcast
11:15 PM 30.2 °F 18.5 °F 30.2 °F 100% 30.12 in 10.0 mi NE 17.3 mph 21.9 mph N/A   Overcast
11:35 PM 28.4 °F 16.2 °F 28.4 °F 100% 30.12 in 10.0 mi ENE 17.3 mph 23.0 mph N/A   Overcast
11:55 PM 28.4 °F 15.8 °F 28.4 °F 100% 30.12 in 9.0 mi ENE 18.4 mph 24.2 mph N/A   Overcast